When you browse on this site, cookies collect data to enhance your experience and personalize the content and advertising you see.
Visit our Privacy Policy to learn more. By continuing to use the site, you agree to this use of cookies and data.
  • In Denmark
  • List of Countries
  • For 7 days
  • Water Temperature
  • Satellite Maps
  • Weather Map
  • Weather Widgets
  • user-avatar
    Login

    Hourly Weather Al-Basra

    Today, 25 April, Thursday

    Time Temperature Precipitation Wind Pressure Humidity
    00:00 +22°C° 0 mm 5 mps 760 mmHg 20%
    01:00 +22°C° 0 mm 5 mps 760 mmHg 20%
    02:00 +21°C° 0 mm 5 mps 760 mmHg 21%
    03:00 +21°C° 0 mm 5 mps 759 mmHg 21%
    04:00 +20°C° 0 mm 6 mps 760 mmHg 22%
    05:00 +20°C° 0 mm 6 mps 760 mmHg 23%
    06:00 +20°C° 0 mm 6 mps 760 mmHg 23%
    07:00 +21°C° 0 mm 7 mps 760 mmHg 21%
    08:00 +23°C° 0 mm 7 mps 760 mmHg 19%
    09:00 +26°C° 0 mm 8 mps 760 mmHg 17%
    10:00 +27°C° 0 mm 8 mps 760 mmHg 16%
    11:00 +28°C° 0 mm 8 mps 760 mmHg 14%
    12:00 +29°C° 0 mm 8 mps 760 mmHg 13%
    13:00 +29°C° 0 mm 8 mps 759 mmHg 12%
    14:00 +31°C° 0 mm 8 mps 759 mmHg 11%
    15:00 +30°C° 0 mm 7 mps 758 mmHg 11%
    16:00 +30°C° 0 mm 7 mps 758 mmHg 12%
    17:00 +29°C° 0 mm 7 mps 758 mmHg 12%
    18:00 +29°C° 0 mm 7 mps 758 mmHg 13%
    19:00 +28°C° 0 mm 6 mps 758 mmHg 14%
    20:00 +27°C° 0 mm 5 mps 758 mmHg 16%
    21:00 +27°C° 0 mm 4 mps 758 mmHg 17%
    22:00 +26°C° 0 mm 4 mps 758 mmHg 19%
    23:00 +26°C° 0 mm 4 mps 758 mmHg 20%

    Tomorrow, 26 April, Friday

    Time Temperature Precipitation Wind Pressure Humidity
    00:00 +25°C° 0 mm 4 mps 758 mmHg 21%
    01:00 +23°C° 0 mm 4 mps 758 mmHg 21%
    02:00 +23°C° 0 mm 4 mps 758 mmHg 22%
    03:00 +22°C° 0 mm 4 mps 758 mmHg 23%
    04:00 +22°C° 0 mm 4 mps 758 mmHg 23%
    05:00 +22°C° 0 mm 4 mps 758 mmHg 24%
    06:00 +21°C° 0 mm 4 mps 758 mmHg 24%
    07:00 +23°C° 0 mm 4 mps 758 mmHg 21%
    08:00 +26°C° 0 mm 5 mps 758 mmHg 18%
    09:00 +27°C° 0 mm 5 mps 759 mmHg 15%
    10:00 +28°C° 0 mm 5 mps 758 mmHg 13%
    11:00 +29°C° 0 mm 5 mps 758 mmHg 12%
    12:00 +30°C° 0 mm 5 mps 758 mmHg 11%
    13:00 +30°C° 0 mm 5 mps 758 mmHg 10%
    14:00 +32°C° 0 mm 5 mps 757 mmHg 10%
    15:00 +32°C° 0 mm 5 mps 757 mmHg 9%
    16:00 +32°C° 0 mm 5 mps 757 mmHg 9%
    17:00 +32°C° 0 mm 5 mps 757 mmHg 9%
    18:00 +30°C° 0 mm 4 mps 756 mmHg 9%
    19:00 +30°C° 0 mm 4 mps 757 mmHg 10%
    20:00 +29°C° 0 mm 4 mps 757 mmHg 10%
    21:00 +28°C° 0 mm 3 mps 758 mmHg 11%
    22:00 +28°C° 0 mm 4 mps 758 mmHg 12%
    23:00 +27°C° 0 mm 4 mps 758 mmHg 12%

    Day after tomorrow, 27 April, Saturday

    Time Temperature Precipitation Wind Pressure Humidity
    00:00 +26°C° 0 mm 4 mps 758 mmHg 13%
    01:00 +26°C° 0 mm 4 mps 758 mmHg 14%
    02:00 +25°C° 0 mm 4 mps 758 mmHg 15%
    03:00 +25°C° 0 mm 3 mps 757 mmHg 16%
    04:00 +24°C° 0 mm 3 mps 758 mmHg 16%
    05:00 +24°C° 0 mm 3 mps 758 mmHg 16%
    06:00 +24°C° 0 mm 2 mps 758 mmHg 16%
    07:00 +26°C° 0 mm 2 mps 758 mmHg 14%
    08:00 +27°C° 0 mm 2 mps 759 mmHg 12%
    09:00 +29°C° 0 mm 2 mps 759 mmHg 10%
    10:00 +30°C° 0 mm 2 mps 759 mmHg 10%
    11:00 +31°C° 0 mm 2 mps 759 mmHg 9%
    12:00 +32°C° 0 mm 2 mps 759 mmHg 8%
    13:00 +34°C° 0 mm 2 mps 758 mmHg 8%
    14:00 +34°C° 0 mm 3 mps 758 mmHg 8%
    15:00 +35°C° 0 mm 3 mps 757 mmHg 7%
    16:00 +35°C° 0 mm 3 mps 757 mmHg 8%
    17:00 +34°C° 0 mm 2 mps 757 mmHg 8%
    18:00 +34°C° 0 mm 2 mps 756 mmHg 8%
    19:00 +34°C° 0 mm 2 mps 757 mmHg 9%
    20:00 +32°C° 0 mm 1 mps 757 mmHg 9%
    21:00 +31°C° 0 mm 1 mps 757 mmHg 10%
    22:00 +31°C° 0 mm 1 mps 757 mmHg 11%
    23:00 +30°C° 0 mm 1 mps 757 mmHg 11%

    28 April, Sunday

    Time Temperature Precipitation Wind Pressure Humidity
    00:00 +30°C° 0 mm 1 mps 757 mmHg 12%
    01:00 +30°C° 0 mm 2 mps 757 mmHg 13%
    02:00 +29°C° 0 mm 3 mps 757 mmHg 13%
    03:00 +29°C° 0 mm 4 mps 756 mmHg 14%
    04:00 +28°C° 0.1 mm 4 mps 757 mmHg 20%
    05:00 +27°C° 0.1 mm 5 mps 757 mmHg 26%
    06:00 +24°C° 0.1 mm 6 mps 758 mmHg 32%
    07:00 +23°C° 1.4 mm 6 mps 758 mmHg 40%
    08:00 +22°C° 1.4 mm 5 mps 759 mmHg 49%
    09:00 +20°C° 1.4 mm 5 mps 759 mmHg 57%
    10:00 +20°C° 1.7 mm 4 mps 760 mmHg 59%
    11:00 +20°C° 1.7 mm 4 mps 760 mmHg 60%
    12:00 +20°C° 1.7 mm 3 mps 760 mmHg 62%
    13:00 +22°C° 0 mm 3 mps 759 mmHg 55%
    14:00 +24°C° 0 mm 2 mps 759 mmHg 48%
    15:00 +25°C° 0 mm 2 mps 758 mmHg 41%
    16:00 +26°C° 0 mm 2 mps 758 mmHg 38%
    17:00 +26°C° 0 mm 3 mps 758 mmHg 36%
    18:00 +26°C° 0 mm 4 mps 758 mmHg 33%
    19:00 +26°C° 0 mm 3 mps 758 mmHg 33%
    20:00 +25°C° 0 mm 3 mps 758 mmHg 33%
    21:00 +25°C° 0 mm 2 mps 759 mmHg 33%
    22:00 +24°C° 0 mm 1 mps 758 mmHg 34%
    23:00 +24°C° 0 mm 1 mps 758 mmHg 36%

    29 April, Monday

    Time Temperature Precipitation Wind Pressure Humidity
    00:00 +23°C° 0 mm 1 mps 758 mmHg 37%
    01:00 +23°C° 0 mm 1 mps 758 mmHg 37%
    02:00 +23°C° 0 mm 1 mps 757 mmHg 37%
    03:00 +22°C° 0 mm 1 mps 757 mmHg 37%
    04:00 +23°C° 0 mm 1 mps 758 mmHg 36%
    05:00 +23°C° 0 mm 1 mps 758 mmHg 35%
    06:00 +23°C° 0 mm 2 mps 758 mmHg 34%
    07:00 +25°C° 0 mm 2 mps 758 mmHg 30%
    08:00 +26°C° 0 mm 2 mps 759 mmHg 26%
    09:00 +28°C° 0 mm 2 mps 759 mmHg 23%
    10:00 +29°C° 0 mm 2 mps 758 mmHg 21%
    11:00 +31°C° 0 mm 2 mps 758 mmHg 18%
    12:00 +33°C° 0 mm 3 mps 758 mmHg 16%
    13:00 +34°C° 0 mm 3 mps 757 mmHg 15%
    14:00 +34°C° 0 mm 3 mps 757 mmHg 14%
    15:00 +35°C° 0 mm 4 mps 756 mmHg 13%
    16:00 +35°C° 0 mm 3 mps 756 mmHg 13%
    17:00 +35°C° 0 mm 3 mps 756 mmHg 14%
    18:00 +35°C° 0 mm 3 mps 755 mmHg 14%
    19:00 +34°C° 0 mm 3 mps 756 mmHg 15%
    20:00 +33°C° 0 mm 3 mps 756 mmHg 16%
    21:00 +31°C° 0 mm 3 mps 756 mmHg 17%
    22:00 +31°C° 0 mm 3 mps 756 mmHg 17%
    23:00 +30°C° 0 mm 3 mps 756 mmHg 18%

    30 April, Tuesday

    Time Temperature Precipitation Wind Pressure Humidity
    00:00 +30°C° 0 mm 3 mps 756 mmHg 18%
    01:00 +29°C° 0 mm 3 mps 755 mmHg 19%
    02:00 +28°C° 0 mm 3 mps 755 mmHg 19%
    03:00 +28°C° 0 mm 3 mps 755 mmHg 20%
    04:00 +28°C° 0 mm 2 mps 755 mmHg 21%
    05:00 +28°C° 0 mm 2 mps 755 mmHg 21%
    06:00 +27°C° 0 mm 1 mps 756 mmHg 22%
    07:00 +29°C° 0 mm 1 mps 756 mmHg 19%
    08:00 +31°C° 0 mm 1 mps 756 mmHg 16%
    09:00 +31°C° 0 mm 0 mps 757 mmHg 14%
    10:00 +34°C° 0 mm 1 mps 756 mmHg 13%
    11:00 +36°C° 0 mm 2 mps 756 mmHg 12%
    12:00 +37°C° 0 mm 3 mps 755 mmHg 11%
    13:00 +38°C° 0 mm 2 mps 755 mmHg 11%
    14:00 +38°C° 0 mm 2 mps 754 mmHg 11%
    15:00 +39°C° 0 mm 2 mps 754 mmHg 11%
    16:00 +38°C° 0 mm 2 mps 753 mmHg 12%
    17:00 +37°C° 0 mm 1 mps 753 mmHg 13%
    18:00 +37°C° 0 mm 1 mps 753 mmHg 14%
    19:00 +36°C° 0 mm 1 mps 753 mmHg 15%
    20:00 +35°C° 0 mm 1 mps 753 mmHg 16%
    21:00 +34°C° 0 mm 1 mps 754 mmHg 18%
    22:00 +34°C° 0 mm 1 mps 753 mmHg 17%
    23:00 +34°C° 0 mm 2 mps 753 mmHg 17%
    Show more